| time (UTC) | temp C | wind direction | speed KPH | gust KPH | rain 1hr cm | rain 24hr cm | rain mn cm | humidity % | barometer mb |
| 20260507192828 | 11 | 1.6 | 3.2 | 0.00 | 0.00 | 0.00 | 71 | 1016.3 | |
| 20260507192319 | 12 | 0.0 | 1.6 | 0.00 | 0.00 | 0.00 | 70 | 1016.3 | |
| 20260507191818 | 12 | 0.0 | 0.0 | 0.00 | 0.00 | 0.00 | 70 | 1016.3 | |
| 20260507191317 | 12 | 1.6 | 6.4 | 0.00 | 0.00 | 0.00 | 70 | 1016.5 | |
| 20260507190816 | 12 | 0.0 | 3.2 | 0.00 | 0.00 | 0.00 | 69 | 1016.3 | |
| 20260507190315 | 12 | 0.0 | 3.2 | 0.00 | 0.00 | 0.00 | 69 | 1016.3 | |
| 20260507185815 | 12 | 0.0 | 0.0 | 0.00 | 0.00 | 0.00 | 69 | 1016.2 | |
| 20260507185314 | 12 | 1.6 | 3.2 | 0.00 | 0.00 | 0.00 | 68 | 1016.3 | |
| 20260507184743 | 12 | 0.0 | 1.6 | 0.00 | 0.00 | 0.00 | 67 | 1016.3 | |
| 20260507184213 | 12 | 0.0 | 6.4 | 0.00 | 0.00 | 0.00 | 67 | 1016.2 | |
| 20260507183642 | 12 | 1.6 | 6.4 | 0.00 | 0.00 | 0.00 | 66 | 1016.3 | |
| 20260507183100 | 13 | 6.4 | 9.7 | 0.00 | 0.00 | 0.00 | 66 | 1016.1 | |
| 20260507182529 | 13 | 3.2 | 4.8 | 0.00 | 0.00 | 0.00 | 66 | 1016.1 | |
| 20260507181958 | 13 | 3.2 | 6.4 | 0.00 | 0.00 | 0.00 | 65 | 1016.1 | |
| 20260507181402 | 13 | 1.6 | 6.4 | 0.00 | 0.00 | 0.00 | 65 | 1016.2 | |
| 20260507180832 | 13 | 3.2 | 8.0 | 0.00 | 0.00 | 0.00 | 64 | 1016.0 | |
| 20260507180325 | 13 | 0.0 | 3.2 | 0.00 | 0.00 | 0.00 | 62 | 1016.1 | |
| 20260507175825 | 13 | 3.2 | 6.4 | 0.00 | 0.00 | 0.00 | 61 | 1015.9 | |
| 20260507175324 | 14 | 1.6 | 4.8 | 0.00 | 0.00 | 0.00 | 60 | 1016.0 | |
| 20260507174824 | 14 | 1.6 | 4.8 | 0.00 | 0.00 | 0.00 | 60 | 1016.1 | |
| 20260507174323 | 14 | 0.0 | 1.6 | 0.00 | 0.00 | 0.00 | 59 | 1016.0 | |
| 20260507173822 | 14 | 3.2 | 8.0 | 0.00 | 0.00 | 0.00 | 58 | 1015.9 | |
| 20260507173321 | 14 | 4.8 | 12.9 | 0.00 | 0.00 | 0.00 | 56 | 1016.0 | |
| 20260507172750 | 14 | 4.8 | 9.7 | 0.00 | 0.00 | 0.00 | 56 | 1016.1 | |
| 20260507172214 | 14 | 4.8 | 9.7 | 0.00 | 0.00 | 0.00 | 56 | 1015.9 | |
| 20260507171629 | 14 | 1.6 | 4.8 | 0.00 | 0.00 | 0.00 | 56 | 1016.0 | |
| 20260507171058 | 14 | 0.0 | 1.6 | 0.00 | 0.00 | 0.00 | 57 | 1016.0 | |
| 20260507170528 | 14 | 3.2 | 6.4 | 0.00 | 0.00 | 0.00 | 56 | 1016.0 | |
| 20260507165942 | 14 | 3.2 | 6.4 | 0.00 | 0.00 | 0.00 | 56 | 1016.1 | |
| 20260507165411 | 14 | 4.8 | 9.7 | 0.00 | 0.00 | 0.00 | 55 | 1016.0 | |
| 20260507164826 | 15 | 1.6 | 4.8 | 0.00 | 0.00 | 0.00 | 54 | 1015.9 | |
| 20260507164325 | 15 | 1.6 | 4.8 | 0.00 | 0.00 | 0.00 | 54 | 1015.8 | |
| 20260507163823 | 15 | 4.8 | 9.7 | 0.00 | 0.00 | 0.00 | 54 | 1015.6 | |
| 20260507163323 | 15 | 4.8 | 8.0 | 0.00 | 0.00 | 0.00 | 54 | 1015.7 | |
| 20260507162823 | 15 | 1.6 | 6.4 | 0.00 | 0.00 | 0.00 | 54 | 1015.8 | |
| 20260507162322 | 15 | 4.8 | 6.4 | 0.00 | 0.00 | 0.00 | 54 | 1015.9 | |
| 20260507161821 | 15 | 1.6 | 3.2 | 0.00 | 0.00 | 0.00 | 54 | 1015.9 | |
| 20260507161321 | 15 | 4.8 | 14.5 | 0.00 | 0.00 | 0.00 | 54 | 1016.0 | |
| 20260507160820 | 15 | 4.8 | 8.0 | 0.00 | 0.00 | 0.00 | 54 | 1015.9 | |
| 20260507160319 | 15 | 6.4 | 12.9 | 0.00 | 0.00 | 0.00 | 53 | 1016.0 | |
| 20260507155834 | 16 | 3.2 | 6.4 | 0.00 | 0.00 | 0.00 | 52 | 1015.8 | |
| 20260507155323 | 16 | 3.2 | 9.7 | 0.00 | 0.00 | 0.00 | 52 | 1016.0 | |
| 20260507154823 | 16 | 3.2 | 11.3 | 0.00 | 0.00 | 0.00 | 53 | 1015.9 | |
| 20260507154321 | 16 | 3.2 | 9.7 | 0.00 | 0.00 | 0.00 | 54 | 1016.0 | |
| 20260507153821 | 16 | 1.6 | 6.4 | 0.00 | 0.00 | 0.00 | 54 | 1016.2 | |
| 20260507153320 | 15 | 6.4 | 11.3 | 0.00 | 0.00 | 0.00 | 56 | 1016.0 | |
| 20260507152819 | 15 | 1.6 | 4.8 | 0.00 | 0.00 | 0.00 | 55 | 1015.8 | |
| 20260507152318 | 14 | 1.6 | 4.8 | 0.00 | 0.00 | 0.00 | 56 | 1016.0 | |
| 20260507151817 | 14 | 3.2 | 8.0 | 0.00 | 0.00 | 0.00 | 56 | 1015.9 | |
| 20260507151316 | 14 | 0.0 | 3.2 | 0.00 | 0.00 | 0.00 | 56 | 1016.0 | |
| 20260507150747 | 14 | 1.6 | 6.4 | 0.00 | 0.00 | 0.00 | 55 | 1015.9 | |
| 20260507150211 | 14 | 3.2 | 3.2 | 0.00 | 0.00 | 0.00 | 55 | 1016.0 | |
| 20260507145640 | 14 | 0.0 | 3.2 | 0.00 | 0.00 | 0.00 | 54 | 1016.1 | |
| 20260507145054 | 15 | 1.6 | 9.7 | 0.00 | 0.00 | 0.00 | 53 | 1016.1 | |
| 20260507144524 | 15 | 0.0 | 1.6 | 0.00 | 0.00 | 0.00 | 53 | 1016.0 | |
| 20260507143952 | 15 | 3.2 | 6.4 | 0.00 | 0.00 | 0.00 | 53 | 1016.0 | |
| 20260507143402 | 15 | 3.2 | 6.4 | 0.00 | 0.00 | 0.00 | 53 | 1015.8 | |
| 20260507142831 | 16 | 1.6 | 3.2 | 0.00 | 0.00 | 0.00 | 52 | 1015.9 | |
| 20260507142326 | 16 | 3.2 | 8.0 | 0.00 | 0.00 | 0.00 | 52 | 1016.0 | |
| 20260507141824 | 16 | 1.6 | 3.2 | 0.00 | 0.00 | 0.00 | 52 | 1016.1 | |
| 20260507141323 | 16 | 3.2 | 6.4 | 0.00 | 0.00 | 0.00 | 53 | 1016.0 | |
| 20260507140822 | 16 | 3.2 | 3.2 | 0.00 | 0.00 | 0.00 | 52 | 1016.2 | |
| 20260507140321 | 16 | 3.2 | 8.0 | 0.00 | 0.00 | 0.00 | 51 | 1016.2 | |
| 20260507135815 | 17 | 3.2 | 6.4 | 0.00 | 0.00 | 0.00 | 47 | 1016.1 | |
| 20260507135315 | 17 | 1.6 | 4.8 | 0.00 | 0.00 | 0.00 | 48 | 1016.3 | |
| 20260507134814 | 17 | 1.6 | 3.2 | 0.00 | 0.00 | 0.00 | 49 | 1016.2 | |
| 20260507134329 | 17 | 0.0 | 1.6 | 0.00 | 0.00 | 0.00 | 49 | 1016.3 | |
| 20260507133823 | 17 | 1.6 | 3.2 | 0.00 | 0.00 | 0.00 | 50 | 1016.4 | |
| 20260507133317 | 17 | 0.0 | 1.6 | 0.00 | 0.00 | 0.00 | 49 | 1016.3 | |
| 20260507132816 | 17 | 1.6 | 3.2 | 0.00 | 0.00 | 0.00 | 49 | 1016.3 | |
| 20260507132316 | 17 | 0.0 | 3.2 | 0.00 | 0.00 | 0.00 | 51 | 1016.2 | |
| 20260507131815 | 17 | 0.0 | 3.2 | 0.00 | 0.00 | 0.00 | 51 | 1016.5 | |
| 20260507131315 | 17 | 0.0 | 1.6 | 0.00 | 0.00 | 0.00 | 52 | 1016.5 | |
| 20260507130815 | 17 | 3.2 | 4.8 | 0.00 | 0.00 | 0.00 | 52 | 1016.5 | |
| 20260507130314 | 17 | 1.6 | 3.2 | 0.00 | 0.00 | 0.00 | 52 | 1016.3 | |
| 20260507125814 | 16 | 3.2 | 8.0 | 0.00 | 0.00 | 0.00 | 53 | 1016.6 | |
| 20260507125328 | 16 | 0.0 | 3.2 | 0.00 | 0.00 | 0.00 | 54 | 1016.4 | |
| 20260507124823 | 16 | 0.0 | 1.6 | 0.00 | 0.00 | 0.00 | 54 | 1016.5 | |
| 20260507124337 | 15 | 0.0 | 1.6 | 0.00 | 0.00 | 0.00 | 55 | 1016.6 | |
| 20260507123826 | 15 | 3.2 | 6.4 | 0.00 | 0.00 | 0.00 | 56 | 1016.6 | |
| 20260507123326 | 15 | 0.0 | 0.0 | 0.00 | 0.00 | 0.00 | 56 | 1016.6 | |
| 20260507122825 | 15 | 1.6 | 6.4 | 0.00 | 0.00 | 0.00 | 57 | 1016.7 | |
| 20260507122324 | 15 | 0.0 | 0.0 | 0.00 | 0.00 | 0.00 | 57 | 1016.7 | |
| 20260507121823 | 15 | 0.0 | 3.2 | 0.00 | 0.00 | 0.00 | 57 | 1016.7 | |
| 20260507121318 | 15 | 3.2 | 6.4 | 0.00 | 0.00 | 0.00 | 57 | 1016.8 | |
| 20260507120817 | 14 | 0.0 | 0.0 | 0.00 | 0.00 | 0.00 | 59 | 1016.9 | |
| 20260507120316 | 14 | 1.6 | 3.2 | 0.00 | 0.00 | 0.00 | 60 | 1016.7 | |
| 20260507115831 | 14 | 1.6 | 3.2 | 0.00 | 0.00 | 0.00 | 60 | 1016.8 | |
| 20260507115323 | 13 | 0.0 | 0.0 | 0.00 | 0.00 | 0.00 | 61 | 1016.7 | |
| 20260507114820 | 13 | 0.0 | 1.6 | 0.00 | 0.00 | 0.00 | 60 | 1016.7 | |
| 20260507114332 | 13 | 0.0 | 0.0 | 0.00 | 0.00 | 0.00 | 62 | 1016.7 | |
| 20260507113822 | 13 | 0.0 | 1.6 | 0.00 | 0.00 | 0.00 | 63 | 1016.7 | |
| 20260507113321 | 13 | 0.0 | 3.2 | 0.00 | 0.00 | 0.00 | 64 | 1016.7 | |
| 20260507112744 | 13 | 0.0 | 1.6 | 0.00 | 0.00 | 0.00 | 65 | 1016.7 | |
| 20260507112208 | 13 | 0.0 | 0.0 | 0.00 | 0.00 | 0.00 | 65 | 1016.7 | |
| 20260507111637 | 13 | 1.6 | 3.2 | 0.00 | 0.00 | 0.00 | 65 | 1016.8 | |
| 20260507111052 | 13 | 1.6 | 4.8 | 0.00 | 0.00 | 0.00 | 65 | 1016.8 | |
| 20260507110521 | 13 | 0.0 | 0.0 | 0.00 | 0.00 | 0.00 | 65 | 1016.8 | |
| 20260507105950 | 13 | 0.0 | 0.0 | 0.00 | 0.00 | 0.00 | 65 | 1017.0 | |
| 20260507105418 | 13 | 0.0 | 0.0 | 0.00 | 0.00 | 0.00 | 65 | 1017.0 | |
| 20260507104828 | 13 | 0.0 | 1.6 | 0.00 | 0.00 | 0.00 | 65 | 1017.0 | |
| 20260507104328 | 13 | 0.0 | 0.0 | 0.00 | 0.00 | 0.00 | 65 | 1016.9 | |
| 20260507103827 | 13 | 0.0 | 1.6 | 0.00 | 0.00 | 0.00 | 64 | 1017.0 | |
| 20260507103326 | -17 | 0.0 | 0.0 | 0.00 | 0.00 | 0.00 | 1017.0 | ||
| 20260507102826 | -17 | 0.0 | 0.0 | 0.00 | 0.00 | 0.00 | 1016.9 | ||
| 20260507102325 | -17 | 0.0 | 0.0 | 0.00 | 0.00 | 0.00 | 1017.1 | ||
| 20260507101825 | -17 | 0.0 | 0.0 | 0.00 | 0.00 | 0.00 | 1017.0 | ||
| 20260507101324 | -17 | 0.0 | 0.0 | 0.00 | 0.00 | 0.00 | 1016.9 | ||
| 20260507100823 | -17 | 0.0 | 0.0 | 0.00 | 0.00 | 0.00 | 1016.9 | ||
| 20260507100323 | -17 | 0.0 | 0.0 | 0.00 | 0.00 | 0.00 | 1017.0 | ||
| 20260507095823 | -17 | 0.0 | 0.0 | 0.00 | 0.00 | 0.00 | 1017.1 | ||
| 20260507095321 | -17 | 0.0 | 0.0 | 0.00 | 0.00 | 0.00 | 1017.0 | ||
| 20260507094820 | -17 | 0.0 | 0.0 | 0.00 | 0.00 | 0.00 | 1016.9 | ||
| 20260507094250 | -17 | 0.0 | 0.0 | 0.00 | 0.00 | 0.00 | 1016.9 | ||
| 20260507093705 | -17 | 0.0 | 0.0 | 0.00 | 0.00 | 0.00 | 1017.1 | ||
| 20260507092905 | -17 | 0.0 | 0.0 | 0.00 | 0.00 | 0.00 | 1017.0 | ||
| 20260507092334 | -17 | 0.0 | 0.0 | 0.00 | 0.00 | 0.00 | 1017.0 | ||
| 20260507091827 | -17 | 0.0 | 0.0 | 0.00 | 0.00 | 0.00 | 1017.0 | ||
| 20260507091327 | -17 | 0.0 | 0.0 | 0.00 | 0.00 | 0.00 | 1017.1 | ||
| 20260507090824 | -17 | 0.0 | 0.0 | 0.00 | 0.00 | 0.00 | 1017.1 | ||
| 20260507090324 | -17 | 0.0 | 0.0 | 0.00 | 0.00 | 0.00 | 1017.1 | ||
| 20260507085823 | -17 | 0.0 | 0.0 | 0.00 | 0.00 | 0.00 | 1017.3 | ||
| 20260507085323 | -17 | 0.0 | 0.0 | 0.00 | 0.00 | 0.00 | 1017.0 | ||
| 20260507084822 | -17 | 0.0 | 0.0 | 0.00 | 0.00 | 0.00 | 1017.1 | ||
| 20260507084322 | -17 | 0.0 | 0.0 | 0.00 | 0.00 | 0.00 | 1017.0 | ||
| 20260507083828 | -17 | 0.0 | 0.0 | 0.00 | 0.00 | 0.00 | 1016.9 | ||
| 20260507083313 | -17 | 0.0 | 0.0 | 0.00 | 0.00 | 0.00 | 1016.9 | ||
| 20260507082742 | -17 | 0.0 | 0.0 | 0.00 | 0.00 | 0.00 | 1016.7 | ||
| 20260507082159 | -17 | 0.0 | 0.0 | 0.00 | 0.00 | 0.00 | 1016.9 | ||
| 20260507081628 | -17 | 0.0 | 0.0 | 0.00 | 0.00 | 0.00 | 1016.9 | ||
| 20260507081042 | -17 | 0.0 | 0.0 | 0.00 | 0.00 | 0.00 | 1016.9 | ||
| 20260507080326 | -17 | 0.0 | 0.0 | 0.00 | 0.00 | 0.00 | 1017.0 | ||
| 20260507075758 | -17 | 0.0 | 0.0 | 0.00 | 0.00 | 0.00 | 1016.9 | ||
| 20260507075223 | -17 | 0.0 | 0.0 | 0.00 | 0.00 | 0.00 | 1016.8 | ||
| 20260507074651 | -17 | 0.0 | 0.0 | 0.00 | 0.00 | 0.00 | 1017.0 | ||
| 20260507074102 | -17 | 0.0 | 0.0 | 0.00 | 0.00 | 0.00 | 1016.8 | ||
| 20260507073447 | -17 | 0.0 | 0.0 | 0.00 | 0.00 | 0.00 | 1016.8 | ||
| 20260507072910 | -17 | 0.0 | 0.0 | 0.00 | 0.00 | 0.00 | 1016.8 | ||
| 20260507072324 | -17 | 0.0 | 0.0 | 0.00 | 0.00 | 0.00 | 1016.9 | ||
| 20260507071824 | -17 | 0.0 | 0.0 | 0.00 | 0.00 | 0.00 | 1016.9 | ||
| 20260507071323 | 9 | 0.0 | 0.0 | 0.00 | 0.00 | 0.00 | 96 | 1016.7 | |
| 20260507070822 | 9 | 0.0 | 0.0 | 0.00 | 0.00 | 0.00 | 96 | 1016.8 | |
| 20260507070236 | 9 | 0.0 | 0.0 | 0.00 | 0.00 | 0.00 | 96 | 1016.8 | |
| 20260507065706 | 8 | 0.0 | 0.0 | 0.00 | 0.00 | 0.00 | 96 | 1016.7 | |
| 20260507065129 | 8 | 0.0 | 0.0 | 0.00 | 0.00 | 0.00 | 97 | 1016.8 | |
| 20260507064559 | 8 | 0.0 | 0.0 | 0.00 | 0.00 | 0.00 | 97 | 1016.7 | |
| 20260507064028 | 7 | 0.0 | 0.0 | 0.00 | 0.00 | 0.00 | 97 | 1016.7 | |
| 20260507063442 | 7 | 0.0 | 0.0 | 0.00 | 0.00 | 0.00 | 97 | 1016.6 | |
| 20260507062912 | 7 | 0.0 | 0.0 | 0.00 | 0.00 | 0.00 | 97 | 1016.5 | |
| 20260507062326 | 6 | 0.0 | 0.0 | 0.00 | 0.00 | 0.00 | 97 | 1016.6 | |
| 20260507061826 | 6 | 0.0 | 0.0 | 0.00 | 0.00 | 0.00 | 98 | 1016.4 | |
| 20260507061319 | 6 | 0.0 | 0.0 | 0.00 | 0.00 | 0.00 | 97 | 1016.3 | |
| 20260507060818 | 6 | 0.0 | 0.0 | 0.00 | 0.00 | 0.00 | 97 | 1016.3 | |
| 20260507060332 | 6 | 0.0 | 0.0 | 0.00 | 0.00 | 0.00 | 97 | 1016.2 | |
| 20260507055821 | 6 | 0.0 | 0.0 | 0.00 | 0.00 | 0.00 | 97 | 1016.4 | |
| 20260507055321 | 6 | 0.0 | 0.0 | 0.00 | 0.00 | 0.00 | 97 | 1016.3 | |
| 20260507054821 | 6 | 0.0 | 0.0 | 0.00 | 0.00 | 0.00 | 96 | 1016.1 | |
| 20260507054315 | 6 | 0.0 | 0.0 | 0.00 | 0.00 | 0.00 | 96 | 1016.3 | |
| 20260507053814 | 6 | 0.0 | 0.0 | 0.00 | 0.00 | 0.00 | 96 | 1016.1 | |
| 20260507053314 | 6 | 0.0 | 0.0 | 0.00 | 0.00 | 0.00 | 96 | 1016.2 | |
| 20260507052828 | 6 | 0.0 | 0.0 | 0.00 | 0.00 | 0.00 | 96 | 1016.2 | |
| 20260507052323 | 6 | 0.0 | 0.0 | 0.00 | 0.00 | 0.00 | 96 | 1016.2 | |
| 20260507051822 | 6 | 0.0 | 0.0 | 0.00 | 0.00 | 0.00 | 96 | 1016.0 | |
| 20260507051322 | 6 | 0.0 | 0.0 | 0.00 | 0.00 | 0.00 | 96 | 1016.0 | |
| 20260507050816 | 6 | 0.0 | 0.0 | 0.00 | 0.00 | 0.00 | 96 | 1016.1 | |
| 20260507050316 | 6 | 0.0 | 0.0 | 0.00 | 0.00 | 0.00 | 96 | 1016.1 | |
| 20260507045816 | 6 | 0.0 | 0.0 | 0.00 | 0.00 | 0.00 | 96 | 1016.1 | |
| 20260507045300 | 6 | 0.0 | 0.0 | 0.00 | 0.00 | 0.00 | 96 | 1016.2 | |
| 20260507044730 | 6 | 0.0 | 0.0 | 0.00 | 0.00 | 0.00 | 96 | 1016.0 | |
| 20260507044159 | 6 | 0.0 | 0.0 | 0.00 | 0.00 | 0.00 | 95 | 1016.0 | |
| 20260507043528 | 6 | 0.0 | 0.0 | 0.00 | 0.00 | 0.00 | 95 | 1015.9 | |
| 20260507042958 | 6 | 0.0 | 0.0 | 0.00 | 0.00 | 0.00 | 94 | 1016.0 | |
| 20260507042328 | 5 | 0.0 | 0.0 | 0.00 | 0.00 | 0.00 | 94 | 1015.9 | |
| 20260507041827 | 6 | 0.0 | 0.0 | 0.00 | 0.00 | 0.00 | 94 | 1016.1 | |
| 20260507041327 | 6 | 0.0 | 0.0 | 0.00 | 0.00 | 0.00 | 94 | 1015.9 | |
| 20260507040826 | 6 | 0.0 | 0.0 | 0.00 | 0.00 | 0.00 | 94 | 1015.9 | |
| 20260507040316 | 6 | 0.0 | 0.0 | 0.00 | 0.00 | 0.00 | 94 | 1015.7 | |
| 20260507035815 | 6 | 0.0 | 0.0 | 0.00 | 0.00 | 0.00 | 93 | 1015.8 | |
| 20260507035315 | 6 | 0.0 | 0.0 | 0.00 | 0.00 | 0.00 | 93 | 1016.0 | |
| 20260507034815 | 6 | 0.0 | 0.0 | 0.00 | 0.00 | 0.00 | 93 | 1016.0 | |
| 20260507034314 | 6 | 0.0 | 0.0 | 0.00 | 0.00 | 0.00 | 93 | 1015.8 | |
| 20260507033829 | 6 | 0.0 | 0.0 | 0.00 | 0.00 | 0.00 | 92 | 1016.0 | |
| 20260507033324 | 6 | 0.0 | 0.0 | 0.00 | 0.00 | 0.00 | 92 | 1015.7 | |
| 20260507032823 | 6 | 0.0 | 0.0 | 0.00 | 0.00 | 0.00 | 92 | 1015.7 | |
| 20260507032323 | 6 | 0.0 | 0.0 | 0.00 | 0.00 | 0.00 | 92 | 1015.8 | |
| 20260507031823 | 6 | 0.0 | 0.0 | 0.00 | 0.00 | 0.00 | 91 | 1015.9 | |
| 20260507031322 | 7 | 0.0 | 0.0 | 0.00 | 0.00 | 0.00 | 91 | 1015.6 | |
| 20260507030822 | 7 | 0.0 | 0.0 | 0.00 | 0.00 | 0.00 | 91 | 1015.8 | |
| 20260507030321 | 7 | 0.0 | 0.0 | 0.00 | 0.00 | 0.00 | 91 | 1015.7 | |
| 20260507025820 | 7 | 0.0 | 0.0 | 0.00 | 0.00 | 0.00 | 91 | 1015.7 | |
| 20260507025220 | 7 | 0.0 | 0.0 | 0.00 | 0.00 | 0.00 | 91 | 1015.8 | |
| 20260507024604 | 7 | 0.0 | 1.6 | 0.00 | 0.00 | 0.00 | 91 | 1015.8 | |
| 20260507024014 | 7 | 0.0 | 0.0 | 0.00 | 0.00 | 0.00 | 90 | 1015.6 | |
| 20260507023444 | 7 | 0.0 | 0.0 | 0.00 | 0.00 | 0.00 | 90 | 1015.8 | |
| 20260507022913 | 7 | 0.0 | 1.6 | 0.00 | 0.00 | 0.00 | 90 | 1015.6 | |
| 20260507022328 | 7 | 0.0 | 0.0 | 0.00 | 0.00 | 0.00 | 90 | 1015.7 | |
| 20260507021827 | 7 | 0.0 | 1.6 | 0.00 | 0.00 | 0.00 | 90 | 1015.7 | |
| 20260507021326 | 7 | 0.0 | 1.6 | 0.00 | 0.00 | 0.00 | 90 | 1015.7 | |
| 20260507020816 | 8 | 0.0 | 0.0 | 0.00 | 0.00 | 0.00 | 90 | 1015.7 | |
| 20260507020246 | 8 | 0.0 | 1.6 | 0.00 | 0.00 | 0.00 | 90 | 1015.6 | |
| 20260507015700 | 8 | 0.0 | 1.6 | 0.00 | 0.00 | 0.00 | 90 | 1015.7 | |
| 20260507015129 | 7 | 0.0 | 3.2 | 0.00 | 0.00 | 0.00 | 90 | 1015.6 | |
| 20260507014559 | 7 | 0.0 | 3.2 | 0.00 | 0.00 | 0.00 | 90 | 1015.7 | |
| 20260507014027 | 7 | 0.0 | 1.6 | 0.00 | 0.00 | 0.00 | 91 | 1015.6 | |
| 20260507013442 | 7 | 0.0 | 0.0 | 0.00 | 0.00 | 0.00 | 90 | 1015.5 | |
| 20260507012910 | 7 | 0.0 | 1.6 | 0.00 | 0.00 | 0.00 | 89 | 1015.6 | |
| 20260507012325 | 7 | 0.0 | 0.0 | 0.00 | 0.00 | 0.00 | 88 | 1015.5 | |
| 20260507011824 | 7 | 0.0 | 0.0 | 0.00 | 0.00 | 0.00 | 87 | 1015.4 | |
| 20260507011339 | 7 | 0.0 | 0.0 | 0.00 | 0.00 | 0.00 | 87 | 1015.5 | |
| 20260507010823 | 7 | 0.0 | 1.6 | 0.00 | 0.00 | 0.00 | 86 | 1015.6 | |
| 20260507010322 | 7 | 0.0 | 0.0 | 0.00 | 0.00 | 0.00 | 86 | 1015.6 | |
| 20260507005822 | 7 | 0.0 | 0.0 | 0.00 | 0.00 | 0.00 | 85 | 1015.5 | |
| 20260507005322 | 7 | 0.0 | 0.0 | 0.00 | 0.00 | 0.00 | 85 | 1015.6 | |
| 20260507004821 | 7 | 0.0 | 0.0 | 0.00 | 0.00 | 0.00 | 85 | 1015.5 | |
| 20260507004321 | 7 | 0.0 | 0.0 | 0.00 | 0.00 | 0.00 | 85 | 1015.4 | |
| 20260507003820 | 8 | 0.0 | 0.0 | 0.00 | 0.00 | 0.00 | 85 | 1015.6 | |
| 20260507003321 | 8 | 0.0 | 0.0 | 0.00 | 0.00 | 0.00 | 85 | 1015.6 | |
| 20260507002549 | 8 | 0.0 | 1.6 | 0.00 | 0.00 | 0.00 | 84 | 1015.7 | |
| 20260507002019 | 8 | 0.0 | 0.0 | 0.00 | 0.00 | 0.00 | 83 | 1015.6 | |
| 20260507001448 | 8 | 0.0 | 0.0 | 0.00 | 0.00 | 0.00 | 83 | 1015.4 | |
| 20260507000912 | 8 | 0.0 | 0.0 | 0.00 | 0.00 | 0.00 | 81 | 1015.6 | |
| 20260507000328 | 8 | 0.0 | 0.0 | 0.00 | 0.00 | 0.00 | 80 | 1015.8 | |
| 20260506235827 | 8 | 0.0 | 0.0 | 0.00 | 0.00 | 0.00 | 80 | 1015.6 | |
| 20260506235326 | 9 | 0.0 | 0.0 | 0.00 | 0.00 | 0.00 | 79 | 1015.7 | |
| 20260506234826 | 9 | 0.0 | 0.0 | 0.00 | 0.00 | 0.00 | 79 | 1015.6 | |
| 20260506234241 | 9 | 0.0 | 1.6 | 0.00 | 0.00 | 0.00 | 79 | 1015.4 | |
| 20260506233705 | 9 | 0.0 | 0.0 | 0.00 | 0.00 | 0.00 | 78 | 1015.5 | |
| 20260506233135 | 9 | 0.0 | 0.0 | 0.00 | 0.00 | 0.00 | 78 | 1015.4 | |
| 20260506232559 | 9 | 0.0 | 3.2 | 0.00 | 0.00 | 0.00 | 77 | 1015.4 | |
| 20260506232024 | 9 | 0.0 | 0.0 | 0.00 | 0.00 | 0.00 | 77 | 1015.5 | |
| 20260506231438 | 9 | 0.0 | 1.6 | 0.00 | 0.00 | 0.00 | 77 | 1015.4 | |
| 20260506230908 | 9 | 0.0 | 3.2 | 0.00 | 0.00 | 0.00 | 76 | 1015.4 | |
| 20260506230323 | 10 | 1.6 | 3.2 | 0.00 | 0.00 | 0.00 | 75 | 1015.6 | |
| 20260506225823 | 10 | 0.0 | 1.6 | 0.00 | 0.00 | 0.00 | 74 | 1015.4 | |
| 20260506225322 | 10 | 0.0 | 3.2 | 0.00 | 0.00 | 0.00 | 74 | 1015.5 | |
| 20260506224821 | 10 | 1.6 | 3.2 | 0.00 | 0.00 | 0.00 | 74 | 1015.7 | |
| 20260506224315 | 10 | 0.0 | 1.6 | 0.00 | 0.00 | 0.00 | 73 | 1015.4 | |
| 20260506223815 | 10 | 0.0 | 1.6 | 0.00 | 0.00 | 0.00 | 73 | 1015.4 | |
| 20260506223314 | 10 | 3.2 | 6.4 | 0.00 | 0.00 | 0.00 | 72 | 1015.4 | |
| 20260506222814 | 10 | 0.0 | 1.6 | 0.00 | 0.00 | 0.00 | 72 | 1015.5 | |
| 20260506222313 | 10 | 0.0 | 3.2 | 0.00 | 0.00 | 0.00 | 71 | 1015.5 | |
| 20260506221813 | 10 | 0.0 | 3.2 | 0.00 | 0.00 | 0.00 | 71 | 1015.4 | |
| 20260506221313 | 10 | 0.0 | 1.6 | 0.00 | 0.00 | 0.00 | 70 | 1015.5 | |
| 20260506220813 | 10 | 0.0 | 0.0 | 0.00 | 0.00 | 0.00 | 70 | 1015.3 | |
| 20260506220242 | 10 | 0.0 | 3.2 | 0.00 | 0.00 | 0.00 | 69 | 1015.4 | |
| 20260506215712 | 10 | 0.0 | 3.2 | 0.00 | 0.00 | 0.00 | 69 | 1015.4 | |
| 20260506215126 | 10 | 0.0 | 3.2 | 0.00 | 0.00 | 0.00 | 68 | 1015.3 | |
| 20260506214555 | 10 | 0.0 | 3.2 | 0.00 | 0.00 | 0.00 | 68 | 1015.3 | |
| 20260506214025 | 10 | 1.6 | 3.2 | 0.00 | 0.00 | 0.00 | 68 | 1015.2 | |
| 20260506213440 | 10 | 1.6 | 4.8 | 0.00 | 0.00 | 0.00 | 67 | 1015.2 | |
| 20260506212909 | 10 | 0.0 | 3.2 | 0.00 | 0.00 | 0.00 | 67 | 1015.3 | |
| 20260506212322 | 10 | 3.2 | 6.4 | 0.00 | 0.00 | 0.00 | 67 | 1015.3 | |
| 20260506211822 | 10 | 4.8 | 8.0 | 0.00 | 0.00 | 0.00 | 67 | 1015.5 | |
| 20260506211322 | 10 | 0.0 | 1.6 | 0.00 | 0.00 | 0.00 | 66 | 1015.1 | |
| 20260506210831 | 10 | 1.6 | 3.2 | 0.00 | 0.00 | 0.00 | 66 | 1015.2 | |
| 20260506210239 | 10 | 1.6 | 3.2 | 0.00 | 0.00 | 0.00 | 65 | 1015.1 | |
| 20260506205708 | 10 | 3.2 | 4.8 | 0.00 | 0.00 | 0.00 | 65 | 1015.3 | |
| 20260506205136 | 10 | 3.2 | 4.8 | 0.00 | 0.00 | 0.00 | 65 | 1015.1 | |
| 20260506204550 | 11 | 0.0 | 3.2 | 0.00 | 0.00 | 0.00 | 64 | 1015.2 | |
| 20260506204019 | 11 | 4.8 | 9.7 | 0.00 | 0.00 | 0.00 | 64 | 1015.1 | |
| 20260506203448 | 11 | 3.2 | 6.4 | 0.00 | 0.00 | 0.00 | 64 | 1015.1 | |
| 20260506202918 | 11 | 3.2 | 9.7 | 0.00 | 0.00 | 0.00 | 63 | 1015.1 | |
| 20260506202327 | 11 | 1.6 | 6.4 | 0.00 | 0.00 | 0.00 | 63 | 1015.0 | |
| 20260506201826 | 11 | 1.6 | 4.8 | 0.00 | 0.00 | 0.00 | 63 | 1014.7 | |
| 20260506201325 | 11 | 3.2 | 6.4 | 0.00 | 0.00 | 0.00 | 62 | 1014.8 | |
| 20260506200824 | 11 | 0.0 | 1.6 | 0.00 | 0.00 | 0.00 | 62 | 1014.8 | |
| 20260506200248 | 11 | 3.2 | 4.8 | 0.00 | 0.00 | 0.00 | 62 | 1014.9 | |
| 20260506195703 | 11 | 3.2 | 6.4 | 0.00 | 0.00 | 0.00 | 62 | 1014.6 | |
| 20260506195132 | 11 | 1.6 | 6.4 | 0.00 | 0.00 | 0.00 | 62 | 1014.6 | |
| 20260506194546 | 11 | 0.0 | 3.2 | 0.00 | 0.00 | 0.00 | 62 | 1014.4 | |
| 20260506194016 | 11 | 1.6 | 3.2 | 0.00 | 0.00 | 0.00 | 62 | 1014.6 | |
| 20260506193446 | 11 | 3.2 | 8.0 | 0.00 | 0.00 | 0.00 | 62 | 1014.4 |